Weather reports worldwide

Advertisment
Bale-Mulhouse, France (7299): temperature & dewpoint: 12.01.2018 07:00:00 - 18.01.2018 07:00:00 (CET)Bale-Mulhouse, France (7299): temperature 5cm: 12.01.2018 07:00:00 - 18.01.2018 07:00:00 (CET)Bale-Mulhouse, France (7299): temperature -20cm & temperature -100cm: 12.01.2018 07:00:00 - 18.01.2018 07:00:00 (CET)Bale-Mulhouse, France (7299): wind speed & gusts: 12.01.2018 07:00:00 - 18.01.2018 07:00:00 (CET)Bale-Mulhouse, France (7299): wind direction: 12.01.2018 07:00:00 - 18.01.2018 07:00:00 (CET)Bale-Mulhouse, France (7299): reduced air pressure: 12.01.2018 07:00:00 - 18.01.2018 07:00:00 (CET)Bale-Mulhouse, France (7299): visibility: 12.01.2018 07:00:00 - 18.01.2018 07:00:00 (CET)Bale-Mulhouse, France (7299): sunshine duration: 12.01.2018 07:00:00 - 18.01.2018 07:00:00 (CET)Bale-Mulhouse, France (7299): precipitation: 12.01.2018 07:00:00 - 18.01.2018 07:00:00 (CET)
Date & Time tt [°C] td [°C] tt 5cm [°C] tt -20cm [°C] tt -100cm [°C] ff [km/h] ff [kn] fx [km/h] fx [kn] dd ppp [hPa] vv [km] sd [min] rr [mm]
18.01.2018 07:00:00 - - - - - - - - - - - - - -
18.01.2018 06:00:00 4,9 1,4 3,3 3,9 6,1 22 12 50 27 SSW 1013,7 10 0 0,6
18.01.2018 05:00:00 4,5 1,2 3,2 4,0 6,2 18 10 46 25 SSW 1014,9 16 0 0,4
18.01.2018 04:00:00 4,8 0,6 3,2 4,0 6,2 16 9 39 21 SSW 1015,8 10 0 0,2
18.01.2018 03:00:00 5,0 0,0 3,3 4,0 6,2 26 14 52 28 SW 1016,7 57 0 0,0
18.01.2018 02:00:00 5,1 -0,1 3,1 4,0 6,2 22 12 48 26 SW 1017,8 10 0 0,2
18.01.2018 01:00:00 4,7 0,1 2,3 4,0 6,2 24 13 37 20 SW 1018,0 10 0 0,0
18.01.2018 00:00:00 3,1 0,5 1,5 4,0 6,2 15 8 47 25 SW 1018,7 10 0 0,0
17.01.2018 23:00:00 3,1 0,0 1,4 4,1 6,2 15 8 46 25 WSW 1018,4 40 0 0,2
17.01.2018 22:00:00 4,4 -1,8 2,7 4,1 6,2 26 14 47 25 WSW 1017,9 60 0 0,0
17.01.2018 21:00:00 4,2 -1,6 2,5 4,2 6,2 27 14 48 26 WSW 1018,0 60 0 0,0
17.01.2018 20:00:00 4,3 -1,5 2,3 4,3 6,2 35 19 58 31 W 1017,3 10 0 0,0
17.01.2018 19:00:00 4,2 -1,2 1,5 4,3 6,2 29 16 54 29 W 1016,7 12 0 0,4
17.01.2018 18:00:00 3,3 -0,2 1,2 4,3 6,2 14 8 44 24 WSW 1016,7 50 0 0,6
17.01.2018 17:00:00 3,6 -0,2 2,1 4,3 6,2 29 15 53 29 WSW 1016,0 8 0 0,2
17.01.2018 16:00:00 4,5 -1,7 4,1 4,3 6,2 35 19 63 34 W 1014,6 10 8 0,0
17.01.2018 15:00:00 4,3 -0,5 3,9 4,3 6,2 23 12 54 29 W 1013,9 50 14 0,0
17.01.2018 14:00:00 3,8 -0,4 2,8 4,4 6,2 26 14 63 34 W 1014,1 10 19 0,0
17.01.2018 13:00:00 3,8 -0,2 0,0 4,5 6,2 31 17 53 29 W 1013,0 10 21 1,2
17.01.2018 12:00:00 0,2 -0,7 0,0 4,5 6,2 25 13 57 31 NW 1013,2 1,0 0 0,2
17.01.2018 11:00:00 3,7 0,0 1,4 4,6 6,2 35 19 72 39 W 1011,0 20 1 0,2
17.01.2018 10:00:00 3,5 -0,7 0,5 4,7 6,1 35 19 69 38 W 1009,8 8 0 1,0
17.01.2018 09:00:00 4,0 -0,8 3,0 4,7 6,2 41 22 71 39 W 1008,1 30 0 0,0
17.01.2018 08:00:00 4,2 -0,8 3,3 4,8 6,2 34 18 59 32 W 1006,7 10 0 0,0
17.01.2018 07:00:00 4,1 -0,3 3,2 4,9 6,1 32 17 63 34 WSW 1006,0 30 0 0,0
17.01.2018 06:00:00 4,2 0,3 2,9 5,0 6,1 31 17 69 37 WSW 1005,1 10 0 0,0
17.01.2018 05:00:00 4,1 1,0 2,3 5,1 6,2 35 19 63 34 WSW 1004,1 10 0 0,0
17.01.2018 04:00:00 3,3 1,2 2,1 5,2 6,1 35 19 52 28 WSW 1003,5 10 0 1,0
17.01.2018 03:00:00 3,1 1,1 2,1 5,2 6,2 34 18 54 29 W 1003,0 2,2 0 4,3
17.01.2018 02:00:00 4,7 2,2 3,7 5,2 6,1 27 14 71 38 WSW 1002,5 59 0 1,8
17.01.2018 01:00:00 6,3 2,9 4,5 5,3 6,1 29 16 51 28 W 1001,8 10 0 1,0
17.01.2018 00:00:00 6,1 3,1 4,1 5,3 6,1 22 12 33 18 SW 1002,1 10 0 0,2
16.01.2018 23:00:00 5,2 3,2 4,4 5,3 6,1 22 12 47 26 W 1003,4 10 0 2,4
16.01.2018 22:00:00 6,5 3,3 5,0 5,4 6,1 26 14 55 30 W 1004,0 7 0 0,4
16.01.2018 21:00:00 7,0 3,1 5,3 5,4 6,1 35 19 69 38 W 1003,6 10 0 0,0
16.01.2018 20:00:00 7,1 3,3 5,2 5,4 6,1 42 23 92 50 WSW 1003,3 10 0 1,0
16.01.2018 19:00:00 6,6 4,3 5,0 5,4 6,1 14 8 37 20 SW 1003,1 60 0 0,0
16.01.2018 18:00:00 6,6 4,1 5,2 5,4 6,1 19 11 43 23 WSW 1003,9 12 0 1,0
16.01.2018 17:00:00 6,7 3,7 5,5 5,3 6,1 32 18 69 38 W 1004,3 12 0 0,4
16.01.2018 16:00:00 7,6 4,4 6,1 5,2 6,1 27 15 61 33 W 1004,1 30 0 1,0
16.01.2018 15:00:00 7,0 4,8 4,2 5,1 6,2 30 16 95 52 W 1004,3 4,0 4 4,5
16.01.2018 14:00:00 10,1 5,1 8,4 4,9 6,2 48 26 95 52 WSW 1002,3 20 26 0,0
16.01.2018 13:00:00 11,1 5,2 8,1 4,7 6,2 51 28 89 48 WSW 1002,1 20 21 0,4
16.01.2018 12:00:00 9,5 6,0 8,0 4,6 6,2 23 13 55 30 WSW 1003,0 12 0 0,2
16.01.2018 11:00:00 9,2 5,6 7,1 4,5 6,2 23 13 61 33 WSW 1003,9 12 5 0,4
16.01.2018 10:00:00 9,7 4,5 7,5 4,4 6,2 35 19 76 41 WSW 1003,7 30 16 0,0
16.01.2018 09:00:00 8,6 5,0 6,8 4,3 6,2 26 14 56 31 WSW 1004,0 30 1 0,2
16.01.2018 08:00:00 8,9 4,3 6,5 4,3 6,2 33 18 81 44 WSW 1003,4 60 0 0,0
16.01.2018 07:00:00 8,3 4,3 6,5 4,2 6,2 37 20 66 35 WSW 1003,4 30 0 0,0
16.01.2018 06:00:00 8,9 3,3 6,1 4,1 6,2 26 14 47 26 SW 1003,2 10 0 0,2
16.01.2018 05:00:00 8,2 4,0 6,1 4,0 6,2 32 18 65 35 SW 1004,5 30 0 0,2
16.01.2018 04:00:00 8,6 3,4 6,3 3,9 6,2 31 17 64 34 SW 1005,0 27 0 0,2
16.01.2018 03:00:00 8,6 3,2 6,3 3,8 6,3 33 18 64 35 SW 1005,4 60 0 0,0
16.01.2018 02:00:00 8,5 3,7 6,2 3,7 6,3 29 16 59 32 SW 1005,8 23 0 0,0
16.01.2018 01:00:00 8,8 3,4 5,8 3,6 6,3 23 12 48 26 SW 1006,2 60 0 0,4
16.01.2018 00:00:00 8,5 2,9 5,7 3,5 6,3 20 11 45 25 SSW 1006,7 15 0 0,2
15.01.2018 23:00:00 8,1 3,2 5,1 3,4 6,3 26 14 45 25 SW 1006,8 15 0 0,2
15.01.2018 22:00:00 7,7 2,4 4,6 3,4 6,4 13 7 35 19 WSW 1007,3 15 0 0,0
15.01.2018 21:00:00 6,1 3,6 4,6 3,3 6,4 7 4 20 11 ENE 1008,6 15 0 0,4
15.01.2018 20:00:00 6,3 3,1 3,6 3,2 6,4 4 2 70 38 S 1009,4 15 0 0,8
15.01.2018 19:00:00 4,6 0,7 3,6 3,1 6,4 5 3 16 9 S 1009,7 15 0 0,0
15.01.2018 18:00:00 4,4 0,2 3,6 3,0 6,4 10 5 23 12 S 1011,1 15 0 0,0
15.01.2018 17:00:00 4,4 0,0 3,8 2,9 6,4 11 6 23 12 SSE 1011,9 10 0 0,0
15.01.2018 16:00:00 5,1 -0,1 5,2 2,8 6,4 6 3 14 7 E 1013,2 15 0 0,0
15.01.2018 15:00:00 5,0 -0,2 5,2 2,7 6,5 10 5 14 7 SSE 1014,8 15 0 0,0
15.01.2018 14:00:00 5,2 -1,3 5,6 2,6 6,5 6 3 23 12 SE 1016,3 14 4 0,0
15.01.2018 13:00:00 4,7 -0,7 4,3 2,7 6,5 19 10 25 14 SE 1017,5 13 0 0,0
15.01.2018 12:00:00 3,6 -0,8 3,5 2,7 6,5 14 8 26 14 SE 1019,0 11 0 0,0
15.01.2018 11:00:00 2,8 -1,2 1,6 2,7 6,5 15 8 24 13 SE 1020,4 10 0 0,0
15.01.2018 10:00:00 1,5 -1,6 0,4 2,8 6,5 16 9 23 12 SE 1021,0 9 0 0,0
15.01.2018 09:00:00 0,6 -2,0 -1,4 2,8 6,5 14 8 20 11 SSE 1021,6 9 0 0,0
15.01.2018 08:00:00 -0,6 -2,8 -2,1 2,9 6,6 13 7 22 12 SSE 1021,8 8 0 0,0
15.01.2018 07:00:00 -1,2 -3,1 -2,5 2,9 6,6 14 8 21 12 SE 1022,1 6 0 0,0
15.01.2018 06:00:00 -1,1 -2,7 -4,8 3,0 6,6 12 7 18 10 SSE 1022,3 6 0 0,0
15.01.2018 05:00:00 -1,3 -2,9 -4,6 3,1 6,6 8 5 16 9 SE 1022,6 6 0 0,0
15.01.2018 04:00:00 -1,1 -2,7 -3,1 3,1 6,6 8 5 24 13 SSE 1022,8 7 0 0,0
15.01.2018 03:00:00 -0,6 -2,7 -1,9 3,2 6,6 13 7 26 14 SE 1022,9 7 0 0,0
15.01.2018 02:00:00 -0,8 -2,7 -2,6 3,3 6,6 15 8 21 11 SE 1023,0 7 0 0,0
15.01.2018 01:00:00 -0,5 -2,6 -1,7 3,3 6,7 14 8 23 13 SE 1023,5 7 0 0,0
15.01.2018 00:00:00 -0,2 -2,3 -1,5 3,4 6,6 14 8 22 12 SE 1023,7 7 0 0,0
14.01.2018 23:00:00 0,1 -2,1 -1,0 3,4 6,7 15 8 27 15 SE 1023,7 8 0 0,0
14.01.2018 22:00:00 0,5 -2,1 -0,6 3,5 6,7 14 8 30 16 SE 1023,6 8 0 0,0
14.01.2018 21:00:00 0,6 -2,0 -0,4 3,5 6,7 22 12 33 18 ESE 1023,4 8 0 0,0
14.01.2018 20:00:00 0,5 -2,2 -0,5 3,6 6,7 16 9 28 15 SE 1023,4 9 0 0,0
14.01.2018 19:00:00 1,0 -1,9 -0,3 3,6 6,7 16 9 26 14 ESE 1023,1 10 0 0,0
14.01.2018 18:00:00 0,8 -2,3 -0,5 3,6 6,7 11 6 24 13 ESE 1022,7 11 0 0,0
14.01.2018 17:00:00 1,9 -2,1 0,9 3,6 6,7 15 8 29 16 ESE 1022,1 12 31 0,0
14.01.2018 16:00:00 3,9 -1,9 3,4 3,5 6,7 14 8 29 15 ESE 1021,5 12 60 0,0
14.01.2018 15:00:00 4,4 -1,8 4,4 3,4 6,7 21 11 31 17 ESE 1021,1 12 60 0,0
14.01.2018 14:00:00 4,6 -1,8 5,0 3,3 6,7 18 10 31 17 SE 1021,1 12 60 0,0
14.01.2018 13:00:00 4,5 -1,7 4,9 3,4 6,8 18 10 31 17 ESE 1021,3 11 60 0,0
14.01.2018 12:00:00 4,2 -1,6 3,7 3,4 6,8 18 10 30 16 E 1021,8 10 60 0,0
14.01.2018 11:00:00 3,4 -1,4 2,7 3,5 6,8 21 11 31 17 ESE 1022,2 10 60 0,0
14.01.2018 10:00:00 1,2 -1,2 -1,7 3,6 6,8 4 2 9 5 - 1022,2 10 60 0,0
14.01.2018 09:00:00 -2,1 -2,9 -5,1 3,7 6,8 2 1 7 4 WSW 1022,4 9 16 0,0
14.01.2018 08:00:00 -2,7 -3,4 -5,9 3,8 6,8 2 1 10 5 N 1022,0 8 0 0,0
14.01.2018 07:00:00 -3,1 -3,8 -5,8 3,9 6,8 2 1 7 4 NNW 1021,9 7 0 0,0
14.01.2018 06:00:00 -2,8 -3,5 -5,6 4,0 6,8 7 4 8 5 NW 1021,6 7 0 0,0
14.01.2018 05:00:00 -3,2 -3,9 -6,0 4,1 6,8 0 0 4 2 N 1021,8 9 0 0,0
14.01.2018 04:00:00 -2,9 -4,0 -5,5 4,2 6,8 0 0 5 3 N 1021,9 2,2 0 0,0
14.01.2018 03:00:00 -2,4 -3,5 -5,0 4,3 6,8 0 0 6 3 N 1021,9 6 0 0,0
14.01.2018 02:00:00 -1,8 -2,9 -3,7 4,5 6,9 0 0 6 4 N 1021,6 7 0 0,0
14.01.2018 01:00:00 -1,2 -2,5 -3,4 4,6 6,9 4 2 9 5 NE 1021,6 6 0 0,0
14.01.2018 00:00:00 -0,8 -2,4 -2,7 4,7 6,8 2 1 9 5 NE 1022,0 10 0 0,0
13.01.2018 23:00:00 0,3 -2,3 -0,9 4,8 6,8 7 4 19 10 ENE 1021,9 15 0 0,0
13.01.2018 22:00:00 1,0 -2,4 -0,3 5,0 6,9 8 5 23 12 ENE 1021,8 15 0 0,0
13.01.2018 21:00:00 1,6 -2,2 -0,7 5,1 6,9 8 5 14 8 NE 1021,9 15 0 0,0
13.01.2018 20:00:00 1,9 -2,4 -0,9 5,2 6,8 6 3 29 16 ENE 1022,0 15 0 0,0
13.01.2018 19:00:00 3,2 -1,8 2,1 5,3 6,9 13 7 30 16 E 1021,9 15 0 0,0
13.01.2018 18:00:00 3,6 -1,8 2,5 5,4 6,9 17 9 32 17 E 1021,8 15 0 0,0
13.01.2018 17:00:00 4,4 -1,6 3,6 5,4 6,9 18 10 32 17 E 1021,9 15 29 0,0
13.01.2018 16:00:00 6,1 -1,6 5,5 5,3 6,8 16 9 32 18 E 1021,8 15 60 0,0
13.01.2018 15:00:00 6,8 -1,6 7,0 5,2 6,8 18 10 28 15 E 1021,8 15 60 0,0
13.01.2018 14:00:00 6,8 -1,4 7,5 5,1 6,8 21 11 31 17 E 1022,0 15 60 0,0
13.01.2018 13:00:00 6,7 -1,2 7,1 5,0 6,8 23 13 36 19 E 1022,7 12 60 0,0
13.01.2018 12:00:00 6,7 -1,0 5,5 5,0 6,9 18 10 32 17 E 1023,3 10 60 0,0
13.01.2018 11:00:00 3,5 1,2 3,8 5,0 6,9 8 4 14 8 NW 1024,0 8 60 0,0
13.01.2018 10:00:00 1,9 0,6 1,2 5,1 6,9 9 5 13 7 NNW 1024,1 5 25 0,0
13.01.2018 09:00:00 0,9 0,0 1,0 5,1 6,9 8 4 11 6 NW 1024,4 4,0 0 0,0
13.01.2018 08:00:00 0,9 0,0 1,0 5,2 6,9 9 5 13 7 NNW 1024,6 3,3 0 0,0
13.01.2018 07:00:00 1,1 0,2 1,2 5,3 6,9 5 3 11 6 NW 1024,9 5 0 0,0
13.01.2018 06:00:00 1,3 0,4 1,4 5,4 6,9 9 5 12 6 NW 1025,1 5 0 0,0
13.01.2018 05:00:00 1,7 0,8 1,7 5,4 6,9 5 3 9 5 NW 1025,3 6 0 0,0
13.01.2018 04:00:00 1,9 1,0 1,9 5,5 6,9 8 5 16 9 NNW 1025,7 6 0 0,0
13.01.2018 03:00:00 2,3 1,1 2,2 5,5 6,9 12 7 19 10 NW 1025,9 8 0 0,0
13.01.2018 02:00:00 2,8 1,5 2,8 5,6 6,9 12 7 18 10 NW 1025,7 7 0 0,0
13.01.2018 01:00:00 3,4 1,9 3,1 5,7 6,9 11 6 14 8 NW 1025,6 8 0 0,0
13.01.2018 00:00:00 3,3 2,1 3,1 5,7 6,9 6 3 9 5 NNW 1025,6 7 0 0,0
12.01.2018 23:00:00 3,9 2,4 3,5 5,7 6,9 5 3 29 16 W 1025,6 9 0 0,0
12.01.2018 22:00:00 4,0 2,3 3,7 5,7 6,9 3 2 15 8 W 1025,7 9 0 0,0
12.01.2018 21:00:00 4,3 2,3 3,9 5,8 6,9 8 4 15 8 N 1025,7 10 0 0,0
12.01.2018 20:00:00 4,4 2,4 4,0 5,8 6,9 8 4 15 8 N 1025,7 15 0 0,0
12.01.2018 19:00:00 4,3 2,3 4,0 5,9 6,9 9 5 13 7 NNW 1025,8 15 0 0,0
12.01.2018 18:00:00 4,2 2,5 4,0 5,9 6,9 6 3 9 5 NNW 1025,5 15 0 0,0
12.01.2018 17:00:00 4,7 2,1 4,6 5,8 6,9 5 3 12 6 N 1025,4 12 0 0,0
12.01.2018 16:00:00 4,8 2,0 4,9 5,8 6,9 5 3 15 8 N 1025,3 10 0 0,0
12.01.2018 15:00:00 4,8 2,5 5,4 5,7 6,9 9 5 18 10 N 1024,9 9 0 0,0
12.01.2018 14:00:00 4,8 2,8 5,5 5,7 6,9 10 5 18 10 N 1024,6 7 0 0,0
12.01.2018 13:00:00 5,0 3,5 5,5 5,6 6,9 11 6 16 9 N 1024,7 7 0 0,0
12.01.2018 12:00:00 4,7 3,0 4,6 5,6 6,9 8 4 17 9 N 1025,1 6 0 0,0
12.01.2018 11:00:00 4,1 3,1 4,4 5,6 6,9 11 6 20 11 N 1025,2 3,0 0 0,0
12.01.2018 10:00:00 4,3 3,1 3,9 5,6 6,9 11 6 19 10 N 1024,7 6 0 0,0
12.01.2018 09:00:00 3,9 3,0 3,6 5,6 6,9 8 4 14 8 N 1024,1 9 0 0,0
12.01.2018 08:00:00 3,9 3,3 3,8 5,7 6,9 4 2 10 5 - 1023,9 3,2 0 0,0
12.01.2018 07:00:00 3,8 3,2 3,6 5,6 6,9 3 1 11 6 NW 1023,5 3,3 0 0,0

tt = temperature
td = dewpoint
tt 5cm = temperature 5cm
tt -20cm = temperature -20cm
tt -100cm = temperature -100cm
ff = wind speed
fx = gusts
dd = wind direction
ppp = reduced air pressure
vv = visibility
sd = sunshine duration
rr = precipitation

Next stations